Time,TemperatureF,DewpointF,PressureIn,WindDirection,WindDirectionDegrees,WindSpeedMPH,WindSpeedGustMPH,Humidity,HourlyPrecipIn,Conditions,Clouds,dailyrainin,SoftwareType,DateUTC
2017-05-22 00:01:00,55.7,52.5,30.17,NNE,27,0.0,0.0,89,0.00,,FEW,0.00,VWS V15.00,2017-05-22 05:01:00,
2017-05-22 00:06:00,55.7,52.5,30.16,NNE,27,0.0,0.0,89,0.00,,FEW,0.00,VWS V15.00,2017-05-22 05:06:00,
2017-05-22 00:11:00,55.7,52.2,30.16,NNE,27,0.0,0.0,88,0.00,,FEW,0.00,VWS V15.00,2017-05-22 05:11:00,
2017-05-22 00:16:00,55.7,52.5,30.16,NNE,27,0.0,0.0,89,0.00,,FEW,0.00,VWS V15.00,2017-05-22 05:16:00,
2017-05-22 00:21:00,55.7,52.5,30.16,NNE,27,0.0,0.0,89,0.00,,FEW,0.00,VWS V15.00,2017-05-22 05:21:00,
2017-05-22 00:26:00,55.6,52.7,30.16,NNE,27,0.0,0.0,90,0.00,,FEW,0.00,VWS V15.00,2017-05-22 05:26:00,
2017-05-22 00:31:00,55.5,52.9,30.16,NNE,27,0.0,0.0,91,0.00,,FEW,0.00,VWS V15.00,2017-05-22 05:31:00,
2017-05-22 00:36:00,55.2,52.6,30.16,NNE,27,0.0,0.0,91,0.00,,FEW,0.00,VWS V15.00,2017-05-22 05:36:00,
2017-05-22 00:41:00,55.1,52.5,30.16,NNE,27,0.0,0.0,91,0.00,,FEW,0.00,VWS V15.00,2017-05-22 05:41:00,
2017-05-22 00:46:00,55.1,52.2,30.15,NNE,27,0.0,0.0,90,0.00,,FEW,0.00,VWS V15.00,2017-05-22 05:46:00,
2017-05-22 00:51:00,55.1,52.2,30.16,NNE,27,0.0,0.0,90,0.00,,FEW,0.00,VWS V15.00,2017-05-22 05:51:00,
2017-05-22 00:56:00,54.7,52.1,30.16,NNE,27,0.0,0.0,91,0.00,,FEW,0.00,VWS V15.00,2017-05-22 05:56:00,
2017-05-22 01:01:00,54.7,52.1,30.15,NNE,27,0.0,0.0,91,0.00,,FEW,0.00,VWS V15.00,2017-05-22 06:01:00,
2017-05-22 01:06:00,55.2,52.6,30.15,NNE,27,0.0,0.0,91,0.00,,FEW,0.00,VWS V15.00,2017-05-22 06:06:00,
2017-05-22 01:11:00,55.2,52.6,30.15,NNE,27,0.0,0.0,91,0.00,,FEW,0.00,VWS V15.00,2017-05-22 06:11:00,
2017-05-22 01:16:00,54.9,52.0,30.16,NNE,27,0.0,0.0,90,0.00,,FEW,0.00,VWS V15.00,2017-05-22 06:16:00,
2017-05-22 01:21:00,55.1,51.9,30.16,NNE,27,0.0,0.0,89,0.00,,FEW,0.00,VWS V15.00,2017-05-22 06:21:00,
2017-05-22 01:26:00,55.4,51.9,30.15,NNE,27,0.0,0.0,88,0.00,,FEW,0.00,VWS V15.00,2017-05-22 06:26:00,
2017-05-22 01:31:00,55.4,51.9,30.15,NNE,27,0.0,0.0,88,0.00,,FEW,0.00,VWS V15.00,2017-05-22 06:31:00,
2017-05-22 01:36:00,55.6,52.1,30.15,NNE,27,0.0,0.0,88,0.00,,FEW,0.00,VWS V15.00,2017-05-22 06:36:00,
2017-05-22 01:41:00,55.7,51.9,30.15,NNE,27,0.0,0.0,87,0.00,,FEW,0.00,VWS V15.00,2017-05-22 06:41:00,
2017-05-22 01:46:00,55.0,52.1,30.15,NNE,27,0.0,0.0,90,0.00,,FEW,0.00,VWS V15.00,2017-05-22 06:46:00,
2017-05-22 01:51:00,54.7,51.8,30.14,NNE,27,0.0,0.0,90,0.00,,FEW,0.00,VWS V15.00,2017-05-22 06:51:00,
2017-05-22 01:56:00,54.9,51.4,30.14,NNE,27,0.0,0.0,88,0.00,,FEW,0.00,VWS V15.00,2017-05-22 06:56:00,
2017-05-22 02:01:00,55.1,51.3,30.14,NNE,27,0.0,0.0,87,0.00,,FEW,0.00,VWS V15.00,2017-05-22 07:01:00,
2017-05-22 02:06:00,54.8,51.9,30.14,NNE,27,0.0,0.0,90,0.00,,FEW,0.00,VWS V15.00,2017-05-22 07:06:00,
2017-05-22 02:11:00,54.8,51.9,30.13,NNE,27,0.0,0.0,90,0.00,,FEW,0.00,VWS V15.00,2017-05-22 07:11:00,
2017-05-22 02:12:00,54.8,51.9,30.13,NNE,27,0.0,0.0,90,0.00,,FEW,0.00,VWS V15.00,2017-05-22 07:12:00,
2017-05-22 02:17:00,54.8,51.9,30.13,NNE,27,0.0,0.0,90,0.00,,FEW,0.00,VWS V15.00,2017-05-22 07:17:00,
2017-05-22 02:22:00,54.4,51.5,30.14,NNE,27,0.0,0.0,90,0.00,,FEW,0.00,VWS V15.00,2017-05-22 07:22:00,
2017-05-22 02:27:00,54.2,51.6,30.14,NNE,27,0.0,0.0,91,0.00,,FEW,0.00,VWS V15.00,2017-05-22 07:27:00,
2017-05-22 02:32:00,54.4,52.1,30.14,NNE,27,0.0,0.0,92,0.00,,FEW,0.00,VWS V15.00,2017-05-22 07:32:00,
2017-05-22 02:37:00,54.5,51.9,30.14,NNE,27,0.0,0.0,91,0.00,,FEW,0.00,VWS V15.00,2017-05-22 07:37:00,
2017-05-22 02:42:00,54.1,51.5,30.14,NNE,27,0.0,0.0,91,0.00,,FEW,0.00,VWS V15.00,2017-05-22 07:42:00,
2017-05-22 02:47:00,54.0,51.4,30.13,NNE,27,0.0,0.0,91,0.00,,FEW,0.00,VWS V15.00,2017-05-22 07:47:00,
2017-05-22 02:52:00,54.0,51.4,30.13,NNE,27,0.0,0.0,91,0.00,,FEW,0.00,VWS V15.00,2017-05-22 07:52:00,
2017-05-22 02:57:00,54.1,51.8,30.14,NNE,27,0.0,0.0,92,0.00,,FEW,0.00,VWS V15.00,2017-05-22 07:57:00,
2017-05-22 03:02:00,53.9,51.6,30.14,NNE,27,0.0,0.0,92,0.00,,FEW,0.00,VWS V15.00,2017-05-22 08:02:00,
2017-05-22 03:07:00,54.0,51.7,30.13,NNE,27,0.0,0.0,92,0.00,,FEW,0.00,VWS V15.00,2017-05-22 08:07:00,
2017-05-22 03:12:00,53.8,51.5,30.13,NNE,27,0.0,0.0,92,0.00,,FEW,0.00,VWS V15.00,2017-05-22 08:12:00,
2017-05-22 03:17:00,53.7,51.7,30.13,NNE,27,0.0,0.0,93,0.00,,FEW,0.00,VWS V15.00,2017-05-22 08:17:00,
2017-05-22 03:22:00,53.8,51.8,30.13,NNE,27,0.0,0.0,93,0.00,,FEW,0.00,VWS V15.00,2017-05-22 08:22:00,
2017-05-22 03:27:00,53.8,51.8,30.12,NNE,27,0.0,0.0,93,0.00,,FEW,0.00,VWS V15.00,2017-05-22 08:27:00,
2017-05-22 03:32:00,53.9,51.9,30.13,NNE,27,0.0,0.0,93,0.00,,FEW,0.00,VWS V15.00,2017-05-22 08:32:00,
2017-05-22 03:37:00,54.2,52.5,30.14,NNE,27,0.0,0.0,94,0.00,,FEW,0.00,VWS V15.00,2017-05-22 08:37:00,
2017-05-22 03:42:00,54.1,52.1,30.14,NNE,27,0.0,0.0,93,0.00,,FEW,0.00,VWS V15.00,2017-05-22 08:42:00,
2017-05-22 03:47:00,53.8,51.8,30.13,NNE,27,0.0,0.0,93,0.00,,FEW,0.00,VWS V15.00,2017-05-22 08:47:00,
2017-05-22 03:52:00,53.7,52.0,30.13,NNE,27,0.0,0.0,94,0.00,,FEW,0.00,VWS V15.00,2017-05-22 08:52:00,
2017-05-22 03:53:00,53.7,52.0,30.13,NNE,27,0.0,0.0,94,0.00,,FEW,0.00,VWS V15.00,2017-05-22 08:53:00,
2017-05-22 03:58:00,53.7,52.0,30.13,NNE,27,0.0,0.0,94,0.00,,FEW,0.00,VWS V15.00,2017-05-22 08:58:00,
2017-05-22 04:03:00,53.7,52.0,30.13,NNE,27,0.0,0.0,94,0.00,,FEW,0.00,VWS V15.00,2017-05-22 09:03:00,
2017-05-22 04:08:00,53.6,51.9,30.13,NNE,27,0.0,0.0,94,0.00,,FEW,0.00,VWS V15.00,2017-05-22 09:08:00,
2017-05-22 04:13:00,53.5,51.8,30.13,NNE,27,0.0,0.0,94,0.00,,FEW,0.00,VWS V15.00,2017-05-22 09:13:00,
2017-05-22 04:18:00,53.4,51.7,30.13,NNE,27,0.0,0.0,94,0.00,,FEW,0.00,VWS V15.00,2017-05-22 09:18:00,
2017-05-22 04:23:00,53.6,51.9,30.13,NNE,27,0.0,0.0,94,0.00,,FEW,0.00,VWS V15.00,2017-05-22 09:23:00,
2017-05-22 04:28:00,53.5,52.1,30.13,NNE,27,0.0,0.0,95,0.00,,FEW,0.00,VWS V15.00,2017-05-22 09:28:00,
2017-05-22 04:33:00,53.5,51.8,30.13,NNE,27,0.0,0.0,94,0.00,,FEW,0.00,VWS V15.00,2017-05-22 09:33:00,
2017-05-22 04:38:00,53.7,52.3,30.13,NNE,27,0.0,0.0,95,0.00,,FEW,0.00,VWS V15.00,2017-05-22 09:38:00,
2017-05-22 04:43:00,53.5,51.8,30.13,NNE,27,0.0,0.0,94,0.00,,FEW,0.00,VWS V15.00,2017-05-22 09:43:00,
2017-05-22 04:45:00,53.6,52.2,30.13,NNE,27,0.0,0.0,95,0.00,,FEW,0.00,VWS V15.00,2017-05-22 09:45:00,
2017-05-22 04:50:00,53.6,51.9,30.13,NNE,27,0.0,0.0,94,0.00,,FEW,0.00,VWS V15.00,2017-05-22 09:50:00,
2017-05-22 04:55:00,53.5,51.8,30.13,NNE,27,0.0,0.0,94,0.00,,FEW,0.00,VWS V15.00,2017-05-22 09:55:00,
2017-05-22 05:00:00,53.6,52.2,30.12,NNE,27,0.0,0.0,95,0.00,,FEW,0.00,VWS V15.00,2017-05-22 10:00:00,
2017-05-22 05:05:00,53.9,52.2,30.13,NNE,27,0.0,0.0,94,0.00,,FEW,0.00,VWS V15.00,2017-05-22 10:05:00,
2017-05-22 05:10:00,53.9,52.2,30.13,NNE,27,0.0,0.0,94,0.00,,FEW,0.00,VWS V15.00,2017-05-22 10:10:00,
2017-05-22 05:15:00,54.1,52.1,30.12,NNE,27,0.0,0.0,93,0.00,,FEW,0.00,VWS V15.00,2017-05-22 10:15:00,
2017-05-22 05:20:00,54.5,52.2,30.13,NNE,27,0.0,0.0,92,0.00,,FEW,0.00,VWS V15.00,2017-05-22 10:20:00,
2017-05-22 05:25:00,54.3,51.7,30.13,NNE,27,0.0,0.0,91,0.00,,FEW,0.00,VWS V15.00,2017-05-22 10:25:00,
2017-05-22 05:30:00,53.8,51.5,30.13,NNE,27,0.0,0.0,92,0.00,,FEW,0.00,VWS V15.00,2017-05-22 10:30:00,
2017-05-22 05:35:00,53.5,51.5,30.13,NNE,27,0.0,0.0,93,0.00,,FEW,0.00,VWS V15.00,2017-05-22 10:35:00,
2017-05-22 05:40:00,53.2,51.2,30.13,NNE,27,0.0,0.0,93,0.00,,FEW,0.00,VWS V15.00,2017-05-22 10:40:00,
2017-05-22 05:45:00,53.2,51.5,30.13,NNE,27,0.0,0.0,94,0.00,,FEW,0.00,VWS V15.00,2017-05-22 10:45:00,
2017-05-22 05:50:00,53.1,51.4,30.13,NNE,27,0.0,0.0,94,0.00,,FEW,0.00,VWS V15.00,2017-05-22 10:50:00,
2017-05-22 05:55:00,52.9,51.2,30.13,NNE,27,0.0,0.0,94,0.00,,FEW,0.00,VWS V15.00,2017-05-22 10:55:00,
2017-05-22 06:00:00,52.7,51.0,30.14,NNE,27,0.0,0.0,94,0.00,,FEW,0.00,VWS V15.00,2017-05-22 11:00:00,
2017-05-22 06:05:00,52.8,51.4,30.14,NNE,27,0.0,0.0,95,0.00,,FEW,0.00,VWS V15.00,2017-05-22 11:05:00,
2017-05-22 06:10:00,52.9,51.5,30.14,NNE,27,0.0,0.0,95,0.00,,FEW,0.00,VWS V15.00,2017-05-22 11:10:00,
2017-05-22 06:15:00,53.0,51.6,30.15,NNE,29,0.0,0.0,95,0.00,,FEW,0.00,VWS V15.00,2017-05-22 11:15:00,
2017-05-22 06:20:00,53.3,51.9,30.15,WSW,246,1.0,1.0,95,0.00,,FEW,0.00,VWS V15.00,2017-05-22 11:20:00,
2017-05-22 06:25:00,53.5,52.1,30.15,WSW,246,1.0,1.0,95,0.00,,FEW,0.00,VWS V15.00,2017-05-22 11:25:00,
2017-05-22 06:31:00,53.7,52.0,30.16,WSW,246,0.0,0.0,94,0.00,,FEW,0.00,VWS V15.00,2017-05-22 11:31:00,
2017-05-22 06:36:00,53.7,51.7,30.15,WSW,246,0.0,0.0,93,0.00,,FEW,0.00,VWS V15.00,2017-05-22 11:36:00,
2017-05-22 06:41:00,53.7,51.4,30.16,WSW,238,0.0,0.0,92,0.00,,FEW,0.00,VWS V15.00,2017-05-22 11:41:00,
2017-05-22 06:46:00,53.7,51.4,30.15,SSW,194,0.0,0.0,92,0.00,,FEW,0.00,VWS V15.00,2017-05-22 11:46:00,
2017-05-22 06:51:00,53.8,51.5,30.15,SSW,194,0.0,0.0,92,0.00,,FEW,0.00,VWS V15.00,2017-05-22 11:51:00,
2017-05-22 06:56:00,53.8,51.2,30.16,SSW,194,0.0,0.0,91,0.00,,FEW,0.00,VWS V15.00,2017-05-22 11:56:00,
2017-05-22 07:01:00,53.9,51.3,30.15,SSW,194,1.0,1.0,91,0.00,,FEW,0.00,VWS V15.00,2017-05-22 12:01:00,
2017-05-22 07:04:00,53.9,51.3,30.15,SSW,194,1.0,1.0,91,0.00,,FEW,0.00,VWS V15.00,2017-05-22 12:04:00,
2017-05-22 07:09:00,53.9,51.3,30.15,SSW,194,0.0,0.0,91,0.00,,FEW,0.00,VWS V15.00,2017-05-22 12:09:00,
2017-05-22 07:14:00,54.0,51.7,30.15,SSW,194,0.0,0.0,92,0.00,,FEW,0.00,VWS V15.00,2017-05-22 12:14:00,
2017-05-22 07:19:00,53.8,51.5,30.15,SSW,194,0.0,0.0,92,0.00,,FEW,0.00,VWS V15.00,2017-05-22 12:19:00,
2017-05-22 07:24:00,54.1,51.5,30.15,SSW,194,0.0,0.0,91,0.00,,FEW,0.00,VWS V15.00,2017-05-22 12:24:00,
2017-05-22 07:29:00,54.7,51.8,30.15,SSW,194,0.0,0.0,90,0.00,,FEW,0.00,VWS V15.00,2017-05-22 12:29:00,
2017-05-22 07:34:00,55.3,52.1,30.14,SSW,194,0.0,0.0,89,0.00,,FEW,0.00,VWS V15.00,2017-05-22 12:34:00,
2017-05-22 07:39:00,56.2,52.1,30.14,SSW,194,0.0,0.0,86,0.00,,FEW,0.00,VWS V15.00,2017-05-22 12:39:00,
2017-05-22 07:44:00,57.2,52.7,30.14,SSW,194,0.0,0.0,85,0.00,,FEW,0.00,VWS V15.00,2017-05-22 12:44:00,
2017-05-22 07:49:00,58.2,53.1,30.14,South,175,0.0,0.0,83,0.00,,FEW,0.00,VWS V15.00,2017-05-22 12:49:00,
2017-05-22 07:54:00,59.2,53.4,30.14,South,173,0.0,0.0,81,0.00,,FEW,0.00,VWS V15.00,2017-05-22 12:54:00,
2017-05-22 07:59:00,60.0,53.5,30.14,SSE,161,4.0,6.3,79,0.00,,FEW,0.00,VWS V15.00,2017-05-22 12:59:00,
2017-05-22 08:04:00,60.5,53.3,30.14,South,188,0.0,0.0,77,0.00,,FEW,0.00,VWS V15.00,2017-05-22 13:04:00,
2017-05-22 08:09:00,60.9,53.3,30.14,SSE,166,1.0,4.2,76,0.00,,FEW,0.00,VWS V15.00,2017-05-22 13:09:00,
2017-05-22 08:14:00,61.3,52.2,30.14,South,184,3.0,4.2,72,0.00,,FEW,0.00,VWS V15.00,2017-05-22 13:14:00,
2017-05-22 08:19:00,61.6,52.9,30.14,SSW,202,0.0,0.0,73,0.00,,FEW,0.00,VWS V15.00,2017-05-22 13:19:00,
2017-05-22 08:24:00,62.2,53.8,30.13,SSW,202,0.0,0.0,74,0.00,,FEW,0.00,VWS V15.00,2017-05-22 13:24:00,
2017-05-22 08:29:00,62.4,52.9,30.13,SSW,202,0.0,0.0,71,0.00,,FEW,0.00,VWS V15.00,2017-05-22 13:29:00,
2017-05-22 08:34:00,63.1,53.2,30.14,SSW,202,1.0,1.0,70,0.00,,FEW,0.00,VWS V15.00,2017-05-22 13:34:00,
2017-05-22 08:39:00,63.7,53.3,30.14,SW,215,2.0,2.1,69,0.00,,FEW,0.00,VWS V15.00,2017-05-22 13:39:00,
2017-05-22 08:44:00,64.0,53.6,30.14,WSW,251,5.0,5.2,69,0.00,,FEW,0.00,VWS V15.00,2017-05-22 13:44:00,
2017-05-22 08:49:00,64.5,53.3,30.14,SSE,148,2.0,4.2,67,0.00,,FEW,0.00,VWS V15.00,2017-05-22 13:49:00,
2017-05-22 08:54:00,64.8,53.2,30.14,SSW,211,3.0,3.1,66,0.00,,FEW,0.00,VWS V15.00,2017-05-22 13:54:00,
2017-05-22 08:59:00,65.0,53.4,30.14,South,172,1.0,3.1,66,0.00,,FEW,0.00,VWS V15.00,2017-05-22 13:59:00,
2017-05-22 09:04:00,65.5,54.3,30.14,SE,137,2.0,2.1,67,0.00,,FEW,0.00,VWS V15.00,2017-05-22 14:04:00,
2017-05-22 09:09:00,66.0,54.3,30.14,SSW,193,4.0,4.2,66,0.00,,FEW,0.00,VWS V15.00,2017-05-22 14:09:00,
2017-05-22 09:14:00,66.1,52.3,30.14,SSW,197,1.0,2.1,61,0.00,,FEW,0.00,VWS V15.00,2017-05-22 14:14:00,
2017-05-22 09:16:00,66.3,53.3,30.14,SSE,155,4.0,6.3,63,0.00,,FEW,0.00,VWS V15.00,2017-05-22 14:16:00,
2017-05-22 09:21:00,66.6,52.8,30.13,South,190,0.0,2.1,61,0.00,,FEW,0.00,VWS V15.00,2017-05-22 14:21:00,
2017-05-22 09:26:00,67.2,52.9,30.14,SSW,202,2.0,3.1,60,0.00,,FEW,0.00,VWS V15.00,2017-05-22 14:26:00,
2017-05-22 09:31:00,67.6,52.8,30.13,SSE,161,5.0,5.2,59,0.00,,FEW,0.00,VWS V15.00,2017-05-22 14:31:00,
2017-05-22 09:36:00,67.9,54.8,30.14,SSE,162,8.0,8.4,63,0.00,,FEW,0.00,VWS V15.00,2017-05-22 14:36:00,
2017-05-22 09:41:00,68.0,51.7,30.14,South,184,4.0,4.2,56,0.00,,FEW,0.00,VWS V15.00,2017-05-22 14:41:00,
2017-05-22 09:46:00,68.0,51.2,30.13,South,175,6.0,6.3,55,0.00,,FEW,0.00,VWS V15.00,2017-05-22 14:46:00,
2017-05-22 09:51:00,68.4,53.1,30.13,SSW,192,3.0,8.4,58,0.00,,FEW,0.00,VWS V15.00,2017-05-22 14:51:00,
2017-05-22 09:56:00,68.1,51.3,30.13,South,174,3.0,3.1,55,0.00,,FEW,0.00,VWS V15.00,2017-05-22 14:56:00,
2017-05-22 10:01:00,68.8,53.4,30.13,East,90,3.0,3.1,58,0.00,,FEW,0.00,VWS V15.00,2017-05-22 15:01:00,
2017-05-22 10:06:00,68.9,52.1,30.13,South,175,6.0,6.3,55,0.00,,FEW,0.00,VWS V15.00,2017-05-22 15:06:00,
2017-05-22 10:11:00,69.0,51.2,30.12,South,178,6.0,7.3,53,0.00,,FEW,0.00,VWS V15.00,2017-05-22 15:11:00,
2017-05-22 10:16:00,69.1,52.3,30.12,SSE,167,3.0,5.2,55,0.00,,FEW,0.00,VWS V15.00,2017-05-22 15:16:00,
2017-05-22 10:21:00,69.5,51.1,30.11,ESE,107,2.0,3.1,52,0.00,,FEW,0.00,VWS V15.00,2017-05-22 15:21:00,
2017-05-22 10:26:00,69.7,51.8,30.11,SSE,157,1.0,2.1,53,0.00,,FEW,0.00,VWS V15.00,2017-05-22 15:26:00,
2017-05-22 10:31:00,69.9,50.4,30.11,South,173,7.0,7.3,50,0.00,,FEW,0.00,VWS V15.00,2017-05-22 15:31:00,
2017-05-22 10:36:00,70.1,51.7,30.11,ENE,70,4.0,8.4,52,0.00,,FEW,0.00,VWS V15.00,2017-05-22 15:36:00,
2017-05-22 10:41:00,70.3,51.3,30.10,SSE,161,2.0,5.2,51,0.00,,FEW,0.00,VWS V15.00,2017-05-22 15:41:00,
2017-05-22 10:46:00,70.2,50.7,30.10,East,97,1.0,2.1,50,0.00,,FEW,0.00,VWS V15.00,2017-05-22 15:46:00,
2017-05-22 10:51:00,70.7,49.5,30.10,South,189,5.0,5.2,47,0.00,,FEW,0.00,VWS V15.00,2017-05-22 15:51:00,
2017-05-22 10:56:00,70.4,50.9,30.10,SE,128,7.0,10.5,50,0.00,,FEW,0.00,VWS V15.00,2017-05-22 15:56:00,
2017-05-22 11:01:00,70.5,51.0,30.10,ESE,116,7.0,8.4,50,0.00,,FEW,0.00,VWS V15.00,2017-05-22 16:01:00,
2017-05-22 11:06:00,70.9,49.1,30.10,SE,129,2.0,3.1,46,0.00,,FEW,0.00,VWS V15.00,2017-05-22 16:06:00,
2017-05-22 11:11:00,70.8,50.2,30.10,SSE,151,9.0,10.5,48,0.00,,FEW,0.00,VWS V15.00,2017-05-22 16:11:00,
2017-05-22 11:16:00,71.3,51.7,30.10,SSE,154,3.0,4.2,50,0.00,,FEW,0.00,VWS V15.00,2017-05-22 16:16:00,
2017-05-22 11:21:00,70.7,51.7,30.10,East,89,4.0,7.3,51,0.00,,FEW,0.00,VWS V15.00,2017-05-22 16:21:00,
2017-05-22 11:26:00,70.8,50.7,30.09,East,86,3.0,3.1,49,0.00,,FEW,0.00,VWS V15.00,2017-05-22 16:26:00,
2017-05-22 11:31:00,70.8,50.2,30.09,SSE,167,3.0,6.3,48,0.00,,FEW,0.00,VWS V15.00,2017-05-22 16:31:00,
2017-05-22 11:36:00,71.2,52.2,30.10,SSE,161,4.0,5.2,51,0.00,,FEW,0.00,VWS V15.00,2017-05-22 16:36:00,
2017-05-22 11:41:00,71.4,53.9,30.09,SE,134,1.0,4.2,54,0.00,,FEW,0.00,VWS V15.00,2017-05-22 16:41:00,
2017-05-22 11:46:00,71.7,52.1,30.09,ESE,105,2.0,5.2,50,0.00,,FEW,0.00,VWS V15.00,2017-05-22 16:46:00,
2017-05-22 11:51:00,71.7,54.7,30.09,ESE,110,8.0,8.4,55,0.00,,FEW,0.00,VWS V15.00,2017-05-22 16:51:00,
2017-05-22 11:56:00,71.9,52.3,30.09,SSE,165,7.0,11.5,50,0.00,,FEW,0.00,VWS V15.00,2017-05-22 16:56:00,
2017-05-22 12:01:00,71.8,51.6,30.08,ESE,123,2.0,4.2,49,0.00,,FEW,0.00,VWS V15.00,2017-05-22 17:01:00,
2017-05-22 12:06:00,71.7,51.0,30.08,SSE,148,3.0,6.3,48,0.00,,FEW,0.00,VWS V15.00,2017-05-22 17:06:00,
2017-05-22 12:11:00,72.0,50.1,30.08,West,265,9.0,9.4,46,0.00,,FEW,0.00,VWS V15.00,2017-05-22 17:11:00,
2017-05-22 12:16:00,72.5,50.0,30.08,South,180,2.0,5.2,45,0.00,,FEW,0.00,VWS V15.00,2017-05-22 17:16:00,
2017-05-22 12:17:00,72.4,49.9,30.08,South,170,2.0,5.2,45,0.00,,FEW,0.00,VWS V15.00,2017-05-22 17:17:00,
2017-05-22 12:22:00,72.0,53.4,30.08,South,171,0.0,2.1,52,0.00,,FEW,0.00,VWS V15.00,2017-05-22 17:22:00,
2017-05-22 12:27:00,72.2,53.1,30.07,SSE,161,9.0,12.6,51,0.00,,FEW,0.00,VWS V15.00,2017-05-22 17:27:00,
2017-05-22 12:32:00,72.3,52.6,30.07,South,175,2.0,4.2,50,0.00,,FEW,0.00,VWS V15.00,2017-05-22 17:32:00,
2017-05-22 12:37:00,72.0,52.4,30.07,SSE,167,3.0,6.3,50,0.00,,FEW,0.00,VWS V15.00,2017-05-22 17:37:00,
2017-05-22 12:42:00,71.8,53.8,30.07,ENE,71,1.0,2.1,53,0.00,,FEW,0.00,VWS V15.00,2017-05-22 17:42:00,
2017-05-22 12:47:00,72.4,54.8,30.06,South,185,1.0,3.1,54,0.00,,FEW,0.00,VWS V15.00,2017-05-22 17:47:00,
2017-05-22 12:52:00,72.8,57.2,30.06,SW,234,4.0,6.3,58,0.00,,FEW,0.00,VWS V15.00,2017-05-22 17:52:00,
2017-05-22 12:57:00,73.6,54.9,30.06,SSW,211,2.0,4.2,52,0.00,,FEW,0.00,VWS V15.00,2017-05-22 17:57:00,
2017-05-22 13:02:00,74.2,56.5,30.05,SSW,196,3.0,6.3,54,0.00,,FEW,0.00,VWS V15.00,2017-05-22 18:02:00,
2017-05-22 13:07:00,73.6,56.5,30.05,WSW,247,3.0,5.2,55,0.00,,FEW,0.00,VWS V15.00,2017-05-22 18:07:00,
2017-05-22 13:12:00,73.7,54.5,30.05,South,175,11.0,14.7,51,0.00,,FEW,0.00,VWS V15.00,2017-05-22 18:12:00,
2017-05-22 13:17:00,73.4,56.3,30.05,South,184,1.0,2.1,55,0.00,,FEW,0.00,VWS V15.00,2017-05-22 18:17:00,
2017-05-22 13:22:00,74.0,55.8,30.05,WSW,242,2.0,4.2,53,0.00,,FEW,0.00,VWS V15.00,2017-05-22 18:22:00,
2017-05-22 13:26:00,74.2,52.7,30.05,SSE,155,3.0,6.3,47,0.00,,FEW,0.00,VWS V15.00,2017-05-22 18:26:00,
2017-05-22 13:28:00,73.6,52.7,30.04,SSW,211,10.0,11.5,48,0.00,,FEW,0.00,VWS V15.00,2017-05-22 18:28:00,
2017-05-22 13:31:00,73.6,52.2,30.04,ESE,121,2.0,4.2,47,0.00,,FEW,0.00,VWS V15.00,2017-05-22 18:31:00,
2017-05-22 13:36:00,73.6,54.4,30.04,ENE,70,3.0,5.2,51,0.00,,FEW,0.00,VWS V15.00,2017-05-22 18:36:00,
2017-05-22 13:41:00,73.3,53.6,30.04,SE,142,0.0,1.0,50,0.00,,FEW,0.00,VWS V15.00,2017-05-22 18:41:00,
2017-05-22 13:46:00,73.6,54.4,30.03,WSW,252,5.0,7.3,51,0.00,,FEW,0.00,VWS V15.00,2017-05-22 18:46:00,
2017-05-22 13:51:00,74.6,54.8,30.03,SW,232,7.0,7.3,50,0.00,,FEW,0.00,VWS V15.00,2017-05-22 18:51:00,
2017-05-22 13:56:00,74.4,52.9,30.03,SE,145,4.0,8.4,47,0.00,,FEW,0.00,VWS V15.00,2017-05-22 18:56:00,
2017-05-22 14:01:00,75.2,55.8,30.03,WSW,255,4.0,7.3,51,0.00,,FEW,0.00,VWS V15.00,2017-05-22 19:01:00,
2017-05-22 14:06:00,75.3,55.4,30.03,SW,226,3.0,4.2,50,0.00,,FEW,0.00,VWS V15.00,2017-05-22 19:06:00,
2017-05-22 14:08:00,74.9,52.8,30.02,SW,226,0.0,1.0,46,0.00,,FEW,0.00,VWS V15.00,2017-05-22 19:08:00,
2017-05-22 14:13:00,74.6,54.8,30.02,SW,219,13.0,16.8,50,0.00,,FEW,0.00,VWS V15.00,2017-05-22 19:13:00,
2017-05-22 14:18:00,74.4,54.6,30.02,SSE,167,5.0,5.2,50,0.00,,FEW,0.00,VWS V15.00,2017-05-22 19:18:00,
2017-05-22 14:23:00,74.3,53.9,30.02,SSW,206,4.0,6.3,49,0.00,,FEW,0.00,VWS V15.00,2017-05-22 19:23:00,
2017-05-22 14:28:00,74.8,53.8,30.02,SW,219,6.0,7.3,48,0.00,,FEW,0.00,VWS V15.00,2017-05-22 19:28:00,
2017-05-22 14:33:00,73.9,52.4,30.01,WSW,240,8.0,9.4,47,0.00,,FEW,0.00,VWS V15.00,2017-05-22 19:33:00,
2017-05-22 14:38:00,74.0,53.7,30.01,WSW,254,7.0,8.4,49,0.00,,FEW,0.00,VWS V15.00,2017-05-22 19:38:00,
2017-05-22 14:43:00,74.1,52.6,30.01,SE,136,4.0,4.2,47,0.00,,FEW,0.00,VWS V15.00,2017-05-22 19:43:00,
2017-05-22 14:48:00,74.6,54.2,30.01,WSW,248,7.0,10.5,49,0.00,,FEW,0.00,VWS V15.00,2017-05-22 19:48:00,
2017-05-22 14:53:00,74.8,53.8,30.00,SW,223,7.0,7.3,48,0.00,,FEW,0.00,VWS V15.00,2017-05-22 19:53:00,
2017-05-22 14:58:00,75.0,54.6,30.00,WSW,252,5.0,8.4,49,0.00,,FEW,0.00,VWS V15.00,2017-05-22 19:58:00,
2017-05-22 15:00:00,75.0,54.6,30.00,SW,235,6.0,8.4,49,0.00,,FEW,0.00,VWS V15.00,2017-05-22 20:00:00,
2017-05-22 15:05:00,75.2,54.8,30.00,SW,219,11.0,13.6,49,0.00,,FEW,0.00,VWS V15.00,2017-05-22 20:05:00,
2017-05-22 15:10:00,75.3,52.5,30.00,South,175,6.0,7.3,45,0.00,,FEW,0.00,VWS V15.00,2017-05-22 20:10:00,
2017-05-22 15:15:00,74.8,52.1,29.99,West,269,6.0,6.3,45,0.00,,FEW,0.00,VWS V15.00,2017-05-22 20:15:00,
2017-05-22 15:20:00,75.6,54.5,29.99,West,263,4.0,4.2,48,0.00,,FEW,0.00,VWS V15.00,2017-05-22 20:20:00,
2017-05-22 15:25:00,74.7,53.2,29.99,West,272,7.0,9.4,47,0.00,,FEW,0.00,VWS V15.00,2017-05-22 20:25:00,
2017-05-22 15:30:00,74.7,53.2,29.98,WSW,248,8.0,8.4,47,0.00,,FEW,0.00,VWS V15.00,2017-05-22 20:30:00,
2017-05-22 15:35:00,74.8,52.7,29.98,West,261,10.0,10.5,46,0.00,,FEW,0.00,VWS V15.00,2017-05-22 20:35:00,
2017-05-22 15:40:00,74.8,52.7,29.98,SSW,213,2.0,2.1,46,0.00,,FEW,0.00,VWS V15.00,2017-05-22 20:40:00,
2017-05-22 15:45:00,74.7,53.2,29.98,SW,215,6.0,9.4,47,0.00,,FEW,0.00,VWS V15.00,2017-05-22 20:45:00,
2017-05-22 15:50:00,74.9,49.0,29.98,South,185,7.0,8.4,40,0.00,,FEW,0.00,VWS V15.00,2017-05-22 20:50:00,
2017-05-22 15:55:00,74.5,53.5,29.98,SSW,213,5.0,7.3,48,0.00,,FEW,0.00,VWS V15.00,2017-05-22 20:55:00,
2017-05-22 16:00:00,74.4,49.2,29.97,SSW,195,6.0,6.3,41,0.00,,FEW,0.00,VWS V15.00,2017-05-22 21:00:00,
2017-05-22 16:05:00,74.5,54.7,29.97,SSW,207,5.0,5.2,50,0.00,,FEW,0.00,VWS V15.00,2017-05-22 21:05:00,
2017-05-22 16:10:00,74.7,51.4,29.97,WSW,255,5.0,8.4,44,0.00,,FEW,0.00,VWS V15.00,2017-05-22 21:10:00,
2017-05-22 16:15:00,75.4,53.8,29.97,SW,220,2.0,2.1,47,0.00,,FEW,0.00,VWS V15.00,2017-05-22 21:15:00,
2017-05-22 16:20:00,75.7,54.1,29.97,SW,226,6.0,7.3,47,0.00,,FEW,0.00,VWS V15.00,2017-05-22 21:20:00,
2017-05-22 16:25:00,75.3,53.7,29.97,WSW,242,5.0,5.2,47,0.00,,FEW,0.00,VWS V15.00,2017-05-22 21:25:00,
2017-05-22 16:30:00,75.3,54.3,29.97,SSW,203,4.0,4.2,48,0.00,,FEW,0.00,VWS V15.00,2017-05-22 21:30:00,
2017-05-22 16:35:00,74.5,51.8,29.97,SW,217,3.0,5.2,45,0.00,,FEW,0.00,VWS V15.00,2017-05-22 21:35:00,
2017-05-22 16:40:00,73.9,50.6,29.97,SW,232,4.0,5.2,44,0.00,,FEW,0.00,VWS V15.00,2017-05-22 21:40:00,
2017-05-22 16:45:00,74.6,52.5,29.97,WSW,246,5.0,6.3,46,0.00,,FEW,0.00,VWS V15.00,2017-05-22 21:45:00,
2017-05-22 16:50:00,74.5,53.5,29.97,WSW,248,5.0,8.4,48,0.00,,FEW,0.00,VWS V15.00,2017-05-22 21:50:00,
2017-05-22 16:55:00,74.6,53.1,29.97,WSW,253,4.0,6.3,47,0.00,,FEW,0.00,VWS V15.00,2017-05-22 21:55:00,
2017-05-22 17:00:00,74.7,53.7,29.97,West,261,10.0,13.6,48,0.00,,FEW,0.00,VWS V15.00,2017-05-22 22:00:00,
2017-05-22 17:05:00,74.0,53.7,29.97,West,280,10.0,10.5,49,0.00,,FEW,0.00,VWS V15.00,2017-05-22 22:05:00,
2017-05-22 17:10:00,73.5,52.1,29.97,SW,219,5.0,8.4,47,0.00,,FEW,0.00,VWS V15.00,2017-05-22 22:10:00,
2017-05-22 17:15:00,73.3,53.0,29.97,WSW,242,4.0,6.3,49,0.00,,FEW,0.00,VWS V15.00,2017-05-22 22:15:00,
2017-05-22 17:20:00,73.4,53.7,29.96,West,271,6.0,6.3,50,0.00,,FEW,0.00,VWS V15.00,2017-05-22 22:20:00,
2017-05-22 17:26:00,73.1,52.8,29.96,West,261,7.0,8.4,49,0.00,,FEW,0.00,VWS V15.00,2017-05-22 22:26:00,
2017-05-22 17:31:00,73.0,51.6,29.95,WSW,248,4.0,5.2,47,0.00,,FEW,0.00,VWS V15.00,2017-05-22 22:31:00,
2017-05-22 17:36:00,73.2,52.4,29.96,WSW,250,5.0,5.2,48,0.00,,FEW,0.00,VWS V15.00,2017-05-22 22:36:00,
2017-05-22 17:41:00,74.7,54.3,29.95,West,260,3.0,6.3,49,0.00,,FEW,0.00,VWS V15.00,2017-05-22 22:41:00,
2017-05-22 17:46:00,75.3,53.1,29.95,WSW,244,8.0,10.5,46,0.00,,FEW,0.00,VWS V15.00,2017-05-22 22:46:00,
2017-05-22 17:51:00,75.2,53.6,29.95,SW,236,9.0,9.4,47,0.00,,FEW,0.00,VWS V15.00,2017-05-22 22:51:00,
2017-05-22 17:56:00,74.9,52.2,29.95,West,269,7.0,10.5,45,0.00,,FEW,0.00,VWS V15.00,2017-05-22 22:56:00,
2017-05-22 18:01:00,74.6,51.9,29.95,SW,223,5.0,7.3,45,0.00,,FEW,0.00,VWS V15.00,2017-05-22 23:01:00,
2017-05-22 18:06:00,74.0,51.9,29.95,West,260,9.0,9.4,46,0.00,,FEW,0.00,VWS V15.00,2017-05-22 23:06:00,
2017-05-22 18:11:00,73.6,53.3,29.95,West,259,4.0,8.4,49,0.00,,FEW,0.00,VWS V15.00,2017-05-22 23:11:00,
2017-05-22 18:16:00,73.6,53.3,29.95,WSW,254,7.0,7.3,49,0.00,,FEW,0.00,VWS V15.00,2017-05-22 23:16:00,
2017-05-22 18:21:00,73.0,54.4,29.95,SW,235,7.0,9.4,52,0.00,,FEW,0.00,VWS V15.00,2017-05-22 23:21:00,
2017-05-22 18:26:00,72.4,54.3,29.95,West,268,7.0,10.5,53,0.00,,FEW,0.00,VWS V15.00,2017-05-22 23:26:00,
2017-05-22 18:31:00,72.0,54.0,29.95,West,272,8.0,10.5,53,0.00,,FEW,0.00,VWS V15.00,2017-05-22 23:31:00,
2017-05-22 18:36:00,71.9,54.9,29.94,West,265,6.0,8.4,55,0.00,,FEW,0.00,VWS V15.00,2017-05-22 23:36:00,
2017-05-22 18:41:00,71.7,54.7,29.94,West,274,8.0,9.4,55,0.00,,FEW,0.00,VWS V15.00,2017-05-22 23:41:00,
2017-05-22 18:46:00,71.7,54.2,29.94,WSW,257,5.0,7.3,54,0.00,,FEW,0.00,VWS V15.00,2017-05-22 23:46:00,
2017-05-22 18:51:00,71.6,54.1,29.93,West,264,3.0,3.1,54,0.00,,FEW,0.00,VWS V15.00,2017-05-22 23:51:00,
2017-05-22 18:56:00,71.4,53.9,29.93,SW,234,2.0,2.1,54,0.00,,FEW,0.00,VWS V15.00,2017-05-22 23:56:00,
2017-05-22 19:01:00,71.4,53.9,29.93,WSW,246,2.0,3.1,54,0.00,,FEW,0.00,VWS V15.00,2017-05-23 00:01:00,
2017-05-22 19:06:00,71.6,53.1,29.92,West,263,4.0,4.2,52,0.00,,FEW,0.00,VWS V15.00,2017-05-23 00:06:00,
2017-05-22 19:11:00,71.5,53.5,29.92,SW,223,5.0,7.3,53,0.00,,FEW,0.00,VWS V15.00,2017-05-23 00:11:00,
2017-05-22 19:16:00,71.3,54.3,29.92,SW,229,2.0,3.1,55,0.00,,FEW,0.00,VWS V15.00,2017-05-23 00:16:00,
2017-05-22 19:21:00,71.1,53.6,29.93,WSW,248,3.0,3.1,54,0.00,,FEW,0.00,VWS V15.00,2017-05-23 00:21:00,
2017-05-22 19:26:00,70.9,55.4,29.92,WSW,247,2.0,2.1,58,0.00,,FEW,0.00,VWS V15.00,2017-05-23 00:26:00,
2017-05-22 19:31:00,70.9,54.9,29.92,WSW,247,4.0,4.2,57,0.00,,FEW,0.00,VWS V15.00,2017-05-23 00:31:00,
2017-05-22 19:36:00,70.8,55.3,29.92,WSW,247,2.0,2.1,58,0.00,,FEW,0.00,VWS V15.00,2017-05-23 00:36:00,
2017-05-22 19:41:00,70.7,55.2,29.93,WSW,247,3.0,3.1,58,0.00,,FEW,0.00,VWS V15.00,2017-05-23 00:41:00,
2017-05-22 19:46:00,70.4,55.9,29.93,West,263,4.0,4.2,60,0.00,,FEW,0.00,VWS V15.00,2017-05-23 00:46:00,
2017-05-22 19:51:00,70.2,55.2,29.92,West,267,3.0,3.1,59,0.00,,FEW,0.00,VWS V15.00,2017-05-23 00:51:00,
2017-05-22 19:56:00,69.7,57.0,29.92,West,267,0.0,0.0,64,0.00,,FEW,0.00,VWS V15.00,2017-05-23 00:56:00,
2017-05-22 20:01:00,69.1,56.4,29.92,West,267,0.0,0.0,64,0.00,,FEW,0.00,VWS V15.00,2017-05-23 01:01:00,
2017-05-22 20:06:00,69.0,57.6,29.92,West,267,1.0,1.0,67,0.00,,FEW,0.00,VWS V15.00,2017-05-23 01:06:00,
2017-05-22 20:11:00,68.8,57.4,29.93,West,267,1.0,1.0,67,0.00,,FEW,0.00,VWS V15.00,2017-05-23 01:11:00,
2017-05-22 20:16:00,68.6,57.2,29.93,West,267,2.0,2.1,67,0.00,,FEW,0.00,VWS V15.00,2017-05-23 01:16:00,
2017-05-22 20:21:00,68.6,56.4,29.93,West,267,0.0,1.0,65,0.00,,FEW,0.00,VWS V15.00,2017-05-23 01:21:00,
2017-05-22 20:26:00,68.0,57.1,29.93,West,267,0.0,0.0,68,0.00,,FEW,0.00,VWS V15.00,2017-05-23 01:26:00,
2017-05-22 20:31:00,67.4,56.9,29.92,West,267,0.0,0.0,69,0.00,,FEW,0.00,VWS V15.00,2017-05-23 01:31:00,
2017-05-22 20:36:00,67.6,55.8,29.92,West,267,0.0,0.0,66,0.00,,FEW,0.00,VWS V15.00,2017-05-23 01:36:00,
2017-05-22 20:38:00,67.8,56.0,29.92,West,267,0.0,0.0,66,0.00,,FEW,0.00,VWS V15.00,2017-05-23 01:38:00,
2017-05-22 20:43:00,67.6,55.8,29.92,West,267,0.0,0.0,66,0.00,,FEW,0.00,VWS V15.00,2017-05-23 01:43:00,
2017-05-22 20:48:00,67.2,56.3,29.92,West,267,0.0,0.0,68,0.00,,FEW,0.00,VWS V15.00,2017-05-23 01:48:00,
2017-05-22 20:53:00,67.1,57.8,29.92,West,267,0.0,0.0,72,0.00,,FEW,0.00,VWS V15.00,2017-05-23 01:53:00,
2017-05-22 20:58:00,67.2,55.0,29.92,West,267,0.0,0.0,65,0.00,,FEW,0.00,VWS V15.00,2017-05-23 01:58:00,
2017-05-22 21:03:00,66.8,57.5,29.92,West,267,0.0,0.0,72,0.00,,FEW,0.00,VWS V15.00,2017-05-23 02:03:00,
2017-05-22 21:08:00,66.7,56.6,29.92,West,263,2.0,2.1,70,0.00,,FEW,0.00,VWS V15.00,2017-05-23 02:08:00,
2017-05-22 21:13:00,67.6,55.4,29.92,WSW,258,1.0,2.1,65,0.00,,FEW,0.00,VWS V15.00,2017-05-23 02:13:00,
2017-05-22 21:18:00,67.8,56.5,29.92,WSW,258,0.0,0.0,67,0.00,,FEW,0.00,VWS V15.00,2017-05-23 02:18:00,
2017-05-22 21:23:00,67.7,56.0,29.92,WSW,258,0.0,0.0,66,0.00,,FEW,0.00,VWS V15.00,2017-05-23 02:23:00,
2017-05-22 21:28:00,67.7,57.6,29.92,WSW,258,0.0,0.0,70,0.00,,FEW,0.00,VWS V15.00,2017-05-23 02:28:00,
2017-05-22 21:33:00,67.5,57.0,29.92,West,267,0.0,0.0,69,0.00,,FEW,0.00,VWS V15.00,2017-05-23 02:33:00,
2017-05-22 21:38:00,67.2,57.1,29.92,West,259,0.0,0.0,70,0.00,,FEW,0.00,VWS V15.00,2017-05-23 02:38:00,
2017-05-22 21:43:00,67.2,56.7,29.92,West,259,0.0,0.0,69,0.00,,FEW,0.00,VWS V15.00,2017-05-23 02:43:00,
2017-05-22 21:48:00,67.0,56.5,29.92,West,264,1.0,2.1,69,0.00,,FEW,0.00,VWS V15.00,2017-05-23 02:48:00,
2017-05-22 21:53:00,67.0,57.3,29.92,West,264,0.0,0.0,71,0.00,,FEW,0.00,VWS V15.00,2017-05-23 02:53:00,
2017-05-22 21:58:00,66.5,57.6,29.92,West,264,0.0,0.0,73,0.00,,FEW,0.00,VWS V15.00,2017-05-23 02:58:00,
2017-05-22 22:03:00,66.1,58.0,29.92,West,264,0.0,0.0,75,0.00,,FEW,0.00,VWS V15.00,2017-05-23 03:03:00,
2017-05-22 22:08:00,65.5,57.4,29.92,West,264,0.0,0.0,75,0.00,,FEW,0.00,VWS V15.00,2017-05-23 03:08:00,
2017-05-22 22:13:00,65.1,58.4,29.92,West,264,0.0,0.0,79,0.00,,FEW,0.00,VWS V15.00,2017-05-23 03:13:00,
2017-05-22 22:18:00,65.2,58.2,29.92,West,264,0.0,0.0,78,0.00,,FEW,0.00,VWS V15.00,2017-05-23 03:18:00,
2017-05-22 22:23:00,65.0,57.6,29.91,West,264,0.0,0.0,77,0.00,,FEW,0.00,VWS V15.00,2017-05-23 03:23:00,
2017-05-22 22:28:00,64.7,57.3,29.92,West,264,0.0,0.0,77,0.00,,FEW,0.00,VWS V15.00,2017-05-23 03:28:00,
2017-05-22 22:33:00,65.2,57.8,29.92,West,264,0.0,0.0,77,0.00,,FEW,0.00,VWS V15.00,2017-05-23 03:33:00,
2017-05-22 22:38:00,65.3,57.9,29.92,West,264,0.0,0.0,77,0.00,,FEW,0.00,VWS V15.00,2017-05-23 03:38:00,
2017-05-22 22:43:00,65.6,57.5,29.92,West,264,0.0,0.0,75,0.00,,FEW,0.00,VWS V15.00,2017-05-23 03:43:00,
2017-05-22 22:48:00,66.0,57.5,29.92,West,259,2.0,3.1,74,0.00,,FEW,0.00,VWS V15.00,2017-05-23 03:48:00,
2017-05-22 22:53:00,66.2,57.3,29.92,West,259,2.0,2.1,73,0.00,,FEW,0.00,VWS V15.00,2017-05-23 03:53:00,
2017-05-22 22:58:00,66.1,57.6,29.92,West,259,0.0,0.0,74,0.00,,FEW,0.00,VWS V15.00,2017-05-23 03:58:00,
2017-05-22 23:03:00,65.4,57.7,29.91,West,259,0.0,0.0,76,0.00,,FEW,0.00,VWS V15.00,2017-05-23 04:03:00,
2017-05-22 23:08:00,64.8,57.1,29.91,West,259,0.0,0.0,76,0.00,,FEW,0.00,VWS V15.00,2017-05-23 04:08:00,
2017-05-22 23:13:00,64.7,57.0,29.91,West,259,0.0,0.0,76,0.00,,FEW,0.00,VWS V15.00,2017-05-23 04:13:00,
2017-05-22 23:18:00,64.9,57.2,29.90,West,259,0.0,0.0,76,0.00,,FEW,0.00,VWS V15.00,2017-05-23 04:18:00,